Home > Weather > Shepparton > Past weeks

Flag for Australia Weather for the Past 2 Weeks in Shepparton, Victoria, Australia

Now
64 °F

Mild.


Feels Like: 64 °F
Forecast: 62 / 91 °F
Wind: 13 mph from South

Location: Mangalore Airport

Current Time: Feb 12, 2016 at 3:03:17 AM

Latest Report: Feb 12, 2016 at 1:00 AM


Visibility: N/A

Pressure: 29.97 "Hg

Humidity: 68%

Dew point: 53 °F

Location of SheppartonLocation

Historic Weather in Shepparton — Graph

°F

Shepparton Temperature Yesterday

Maximum temperature yesterday: 87 °F (at 4:00 PM)
Minimum temperature yesterday: 60 °F (at 4:00 AM)
Average temperature yesterday: 71 °F

High & Low Weather Summary for the Past Weeks

 TemperatureHumidityPressure
High89 °F (Feb 7, 6:00 PM)100% (Feb 3, 7:00 AM)30.12 "Hg (Feb 3, 7:00 AM)
Low51 °F (Feb 1, 7:00 AM)19% (Feb 10, 4:00 PM)29.47 "Hg (Jan 28, 6:00 PM)
Average68 °F66%29.84 "Hg
* Reported Jan 28 1:00 AM — Feb 12 1:00 AM, Shepparton, Weather by CustomWeather, © 2016

Note: Actual official high and low records may vary slightly from our data, if they occured in-between our weather recording intervals... More about our weather records

Advertising

Shepparton Weather History for the Previous 24 Hours

 ConditionsComfort  
Time TempWeatherWind HumidityBarometerVisibility
1:00 AM
Fri, Feb 12
64 °FMild.13 mph68%29.97 "HgN/A
12:00 AM66 °FMild.14 mph65%29.98 "HgN/A
10:00 PM
Thu, Feb 11
70 °FMild.14 mph61%29.96 "HgN/A
9:00 PM71 °FMild.14 mph59%29.94 "HgN/A
7:00 PM80 °FWarm.13 mph40%29.89 "HgN/A
6:00 PM83 °FPleasantly warm.18 mph34%29.88 "HgN/A
4:00 PM87 °FPleasantly warm.13 mph31%29.88 "HgN/A
3:00 PM85 °FPleasantly warm.12 mph34%29.89 "HgN/A
1:00 PM81 °FPleasantly warm.9 mph35%29.92 "HgN/A
12:00 PM78 °FPleasantly warm.13 mph39%29.96 "HgN/A
10:00 AM70 °FMild.18 mph54%29.97 "HgN/A
9:00 AM67 °FMild.16 mph64%29.97 "HgN/A
7:00 AM61 °FCool.15 mph77%29.93 "HgN/A
6:00 AM61 °FCool.15 mph75%29.91 "HgN/A
4:00 AM60 °FCool.10 mph77%29.90 "HgN/A
3:00 AM61 °FCool.10 mph77%29.91 "HgN/A
Weather by CustomWeather, © 2016

See weather overviewHow to use our weather pages